Home   Weather   Kenora   Past weeks

Flag for Canada Past Weather in Kenora, Ontario, Canada — Yesterday and Last 2 Weeks

Now
25 °F

Light snow. Overcast.


Feels Like: 14 °F
Forecast: 24 / 31 °F
Wind: 12 mph from Southeast

Location: Kenora

Current Time: Dec 3, 2016 at 6:04:52 pm

Latest Report: Dec 3, 2016 at 5:00 pm


Visibility: 15 mi

Pressure: 30.17 "Hg

Humidity: 86%

Dew Point: 21 °F

Location of KenoraLocation

Past Weather in Kenora — Graph

°F

Kenora Temperature Yesterday

Maximum temperature yesterday: 19 °F (at 2:52 am)
Minimum temperature yesterday: 16 °F (at 10:00 pm)
Average temperature yesterday: 18 °F

High & Low Weather Summary for the Past Weeks

 TemperatureHumidityPressure
High39 °F (Nov 28, 6:00 pm)100% (Nov 22, 4:00 pm)30.45 "Hg (Nov 22, 4:00 pm)
Low16 °F (Nov 19, 6:00 am)44% (Nov 21, 2:00 pm)29.17 "Hg (Nov 28, 2:00 pm)
Average28 °F89%30.02 "Hg
* Reported Nov 18 5:00 pm — Dec 3 5:00 pm, Kenora, Weather by CustomWeather, © 2016

Note: Actual official high and low records may vary slightly from our data, if they occured in-between our weather recording intervals... More about our weather records

Advertising

Kenora Weather History for the Previous 24 Hours

Scroll right to see more
 ConditionsComfort  
Time TempWeatherWind HumidityBarometerVisibility
5:00 pm
Sat, Dec 3
25 °FLight snow. Overcast.12 mph86%30.17 "Hg15 mi
4:00 pm25 °FLight snow. Overcast.13 mph80%30.18 "Hg15 mi
3:00 pm25 °FLight snow. Overcast.13 mph86%30.19 "Hg15 mi
2:00 pm27 °FLight snow. Overcast.8 mph80%30.19 "Hg15 mi
1:00 pm25 °FLight snow. Overcast.12 mph86%30.20 "Hg15 mi
12:00 pm25 °FLight snow. Overcast.13 mph93%30.21 "Hg15 mi
11:00 am25 °FLight snow. More clouds than sun.9 mph93%30.23 "Hg12 mi
10:00 am25 °FLight snow. Low clouds.6 mph93%30.24 "Hg15 mi
9:00 am23 °FLow clouds.3 mph93%30.25 "Hg15 mi
8:00 am21 °FMore clouds than sun.3 mph100%30.26 "Hg15 mi
7:00 am21 °FLight snow. More clouds than sun.3 mph93%30.26 "Hg15 mi
6:00 am21 °FLight snow. Mostly cloudy.3 mph93%30.27 "Hg15 mi
5:00 am19 °FLight snow. Low clouds.2 mph100%30.27 "Hg15 mi
4:50 am19 °FLight snow. Mostly cloudy.No wind100%30.27 "Hg10 mi
4:00 am19 °FLight snow. Ice fog.2 mph93%30.28 "Hg1 mi
3:00 am19 °FLight snow. Ice fog.2 mph93%30.29 "Hg1 mi
2:00 am18 °FLight snow. Ice fog.3 mph93%30.29 "Hg3 mi
1:00 am18 °FLight snow. Ice fog.2 mph93%30.31 "Hg3 mi
12:00 am18 °FLight snow. Low clouds.3 mph93%30.31 "Hg2 mi
11:00 pm
Fri, Dec 2
16 °FLight snow. Low clouds.3 mph93%30.32 "Hg15 mi
10:00 pm16 °FLight snow. Low clouds.2 mph93%30.32 "Hg15 mi
9:00 pm18 °FLight snow. Low clouds.7 mph86%30.32 "Hg15 mi
8:00 pm18 °FLight snow. Low clouds.2 mph93%30.32 "Hg15 mi
7:00 pm18 °FLight snow. Low clouds.5 mph93%30.32 "Hg15 mi
6:00 pm18 °FLight snow. Low clouds.5 mph93%30.31 "Hg15 mi
Weather by CustomWeather, © 2016

See weather overviewHow to use our weather pages